Location: Crescent
(42.8242°N, 73.7329°W)
Time: 11:49:14
(UTC+00:00)

Vanguard 3 - Pass Details

Date: 17 February 2026
Orbit: 507 x 3205 km, 33.4° (Epoch: 8 March)

Event Time Altitude Azimuth Distance (km) Brightness Sun altitude
Rises 23:24:23 0° 256° (WSW) 4,428 13.0 -10.7°
Reaches altitude 10° 23:28:18 10° 248° (WSW) 2,998 11.4 -11.5°
Maximum altitude 23:34:09 31° 188° (S) 1,365 8.4 -12.5°
Enters shadow 23:37:53 12° 128° (SE) 1,919 8.6 -13.2°
